Weather History for Rock Hill, SC

Change the Weather History Date:

Sunday, April 7, 2013

  Actual Average Record
Temperature  
Mean Temperature 55 °F -  
Max Temperature 72 °F 69 °F 89 °F (1967)
Min Temperature 39 °F 45 °F 28 °F (1950)
Degree Days  
Heating Degree Days 10    
Growing Degree Days 5 (Base 50)    
Moisture  
Dew Point 45 °F    
Average Humidity 68    
Maximum Humidity 97    
Minimum Humidity 42    
Precipitation  
Precipitation 0.00 in - - ()
Sea Level Pressure  
Sea Level Pressure 30.19 in    
Wind  
Wind Speed 5 mph (South)    
Max Wind Speed 14 mph    
Max Gust Speed 20 mph    
Visibility 8 miles    
Events      
Averages and records for this station are not official NWS values.
T = Trace of Precipitation, MM = Missing Value Source: NWS Daily Summary

Daily Weather History Graph

Daily Weather History Graph

Search for Another Location

Airport:

Trip Planner

Search our weather history database for the weather conditions in past years. The results will help you decide how hot, cold, wet, or windy it might be!

Date:

Astronomy

Apr. 07, 2013 Rise Set
Actual Time 7:02 AM EDT 7:50 PM EDT
Civil Twilight 6:36 AM EDT 8:16 PM EDT
Nautical Twilight 6:06 AM EDT 8:46 PM EDT
Astronomical Twilight 5:35 AM EDT 9:17 PM EDT
Moon 5:13 AM EDT (4/7) 5:25 PM EDT (4/7)
Length of Visible Light 13h 39m
Length of Day
12h 47m
Waning Crescent, 8% of the Moon is Illuminated
Apr 7
Waning Crescent
Apr 10
New
Apr 18
First Quarter
Apr 25
Full
May 2
Last Quarter

Hourly Weather History & Observations

Time (EDT) Temp. Dew Point Humidity Pressure Visibility Wind Dir Wind Speed Gust Speed Precip Events Conditions
12:54 AM 55.0 °F 42.1 °F 62% 30.21 in 10.0 mi South 6.9 mph - N/A   Clear
1:54 AM 53.1 °F 39.9 °F 61% 30.21 in 10.0 mi SSE 5.8 mph - N/A   Clear
2:54 AM 51.1 °F 37.9 °F 61% 30.20 in 10.0 mi South 4.6 mph - N/A   Clear
3:54 AM 48.9 °F 39.0 °F 69% 30.19 in 10.0 mi SSE 3.5 mph - N/A   Clear
4:54 AM 46.9 °F 39.0 °F 74% 30.19 in 10.0 mi SSE 3.5 mph - N/A   Clear
5:54 AM 43.0 °F 39.0 °F 86% 30.21 in 9.0 mi Calm Calm - N/A   Clear
6:18 AM 41.0 °F 39.0 °F 93% 30.23 in 9.0 mi Calm Calm - N/A   Scattered Clouds
6:27 AM 39.9 °F 39.0 °F 97% 30.23 in 8.0 mi Calm Calm - N/A   Mostly Cloudy
6:54 AM 44.1 °F 42.1 °F 93% 30.24 in 8.0 mi Calm Calm - N/A   Overcast
7:54 AM 48.0 °F 43.0 °F 83% 30.26 in 7.0 mi Calm Calm - N/A   Overcast
8:54 AM 48.0 °F 46.9 °F 96% 30.27 in 5.0 mi South 3.5 mph - N/A   Overcast
9:54 AM 52.0 °F 46.9 °F 83% 30.26 in 6.0 mi South 5.8 mph - N/A   Haze
10:07 AM 53.1 °F 46.9 °F 80% 30.27 in 7.0 mi SW 5.8 mph - N/A   Scattered Clouds
10:54 AM 57.9 °F 46.9 °F 67% 30.26 in 9.0 mi Variable 4.6 mph - N/A   Clear
11:54 AM 61.0 °F 48.0 °F 62% 30.25 in 10.0 mi SSE 6.9 mph - N/A   Clear
12:54 PM 64.9 °F 46.9 °F 52% 30.22 in 10.0 mi SSE 8.1 mph - N/A   Clear
1:54 PM 68.0 °F 48.9 °F 50% 30.18 in 10.0 mi North - - N/A   Partly Cloudy
2:54 PM 71.1 °F 46.9 °F 42% 30.16 in 10.0 mi WSW 13.8 mph 19.6 mph N/A   Partly Cloudy
3:54 PM 71.1 °F 46.9 °F 42% 30.13 in 10.0 mi SSW 9.2 mph - N/A   Partly Cloudy
4:54 PM 71.1 °F 48.9 °F 45% 30.11 in 10.0 mi South 11.5 mph - N/A   Clear
5:54 PM 71.1 °F 48.9 °F 45% 30.11 in 7.0 mi SSW 11.5 mph - N/A   Scattered Clouds
6:54 PM 69.1 °F 48.9 °F 49% 30.11 in 6.0 mi SW 8.1 mph - N/A   Haze
7:54 PM 66.0 °F 50.0 °F 56% 30.11 in 6.0 mi Calm Calm - N/A   Haze
8:54 PM 59.0 °F 50.0 °F 72% 30.12 in 7.0 mi Calm Calm - N/A   Clear
9:54 PM 57.9 °F 50.0 °F 75% 30.13 in 8.0 mi Calm Calm - N/A   Clear
10:54 PM 57.9 °F 51.1 °F 78% 30.13 in 8.0 mi SE 3.5 mph - N/A   Mostly Cloudy
11:54 PM 62.1 °F 51.1 °F 67% 30.12 in 10.0 mi South 6.9 mph - N/A   Partly Cloudy